EHI
0 0 0 0 0 0 0 0 0 0 0 0 0 0 0 0 0 0 0 0 0 0 0 1 2 1 0 0 0 0 0 0 0 0 0 0 0 1 2 3 1 0 0 0
0 0 0 0 0 0 0 0 0 0 0 0 0 0 0 0 1 1 0 0 0 0 0 1 2 2 1 0 0 0 0 0 0 0 0 0 0 1 2 2 2 1 0 0
0 0 0 0 0 0 0 0 0 0 0 0 0 0 0 1 2 2 1 0 0 0 0 1 2 2 1 0 0 1 1 1 0 0 0 0 0 0 1 1 1 1 0 0
0 0 0 0 0 0 0 0 0 0 0 0 0 0 0 1 2 3 2 1 0 0 0 1 2 3 1 0 0 1 2 3 2 0 0 0 0 0 0 0 0 0 0 0
0 0 0 0 0 0 0 0 0 0 0 0 0 0 0 0 1 2 2 1 0 0 0 1 2 3 2 0 0 1 3 5 4 2 0 0 0 0 0 0 0 1 1 0
0 0 0 0 0 0 0 0 0 0 0 0 0 0 0 0 0 1 2 1 0 0 0 1 3 3 1 0 0 1 3 6 6 4 1 0 0 0 0 0 0 1 2 1
0 0 0 0 0 0 0 0 0 0 0 0 0 0 0 0 0 1 2 2 1 1 1 2 3 2 1 0 0 1 2 4 5 4 2 1 0 0 0 0 0 1 1 1
0 0 0 0 0 0 0 0 0 0 0 0 0 0 0 0 0 0 1 2 3 3 2 2 3 2 1 0 0 0 1 2 3 3 3 2 1 1 0 0 0 0 0 0
0 0 0 0 0 0 0 0 0 0 0 0 0 0 0 0 0 0 1 2 4 4 2 2 3 2 1 0 0 0 0 0 1 3 3 3 3 2 1 0 0 0 0 0
0 0 0 0 0 0 0 0 0 0 0 0 0 0 0 0 0 0 1 2 3 3 2 3 3 2 0 0 0 0 0 0 1 2 3 3 3 3 1 0 0 0 0 0
0 0 0 0 0 0 0 0 0 0 0 0 0 0 0 0 0 0 1 2 3 3 3 3 3 2 0 0 0 0 0 0 0 1 2 3 3 3 2 1 0 0 0 0
0 0 0 0 0 0 0 0 0 0 0 0 0 0 0 0 0 0 0 1 1 2 2 3 3 2 0 0 0 0 0 0 0 0 1 3 3 3 3 2 1 0 0 0
0 0 0 0 0 0 0 0 0 0 0 0 0 0 0 0 0 0 0 0 0 1 1 2 2 1 0 0 0 0 0 0 0 0 1 2 2 3 3 3 2 1 0 0
0 0 0 0 0 0 0 0 0 0 0 0 0 0 0 0 0 0 0 0 0 0 1 2 1 1 0 0 0 0 0 0 1 1 1 1 1 1 2 3 3 2 1 0
0 0 0 0 0 0 0 0 0 0 0 0 0 0 0 0 0 0 0 0 0 0 1 1 1 0 0 0 0 0 0 1 3 3 3 2 1 1 1 1 2 2 2 1
0 0 0 0 0 0 0 0 0 0 0 0 0 0 0 0 0 0 0 0 0 0 1 1 0 0 0 0 0 0 0 1 2 3 4 4 4 3 3 1 1 1 1 1
0 0 0 0 0 0 0 0 0 0 0 0 0 0 0 0 0 0 0 0 0 0 1 1 1 0 0 0 0 0 0 0 1 1 3 4 5 5 5 3 1 1 1 1
0 0 0 0 0 0 0 0 0 0 0 0 0 0 0 0 0 0 0 0 0 0 0 1 2 1 1 0 0 0 0 0 0 0 1 2 3 5 6 5 3 2 2 1
0 0 0 0 0 0 0 0 0 0 0 0 0 0 0 0 0 0 0 0 0 0 0 1 2 3 2 1 0 0 0 0 0 0 0 0 1 3 4 5 4 4 3 2
0 0 0 0 0 0 0 0 0 0 0 0 0 0 0 0 0 0 0 0 0 0 0 1 2 3 2 1 0 0 0 0 0 0 0 0 0 1 3 4 5 5 4 3
0 0 0 0 0 0 0 0 0 0 0 0 0 0 0 0 0 0 0 0 0 0 0 1 2 2 1 0 0 0 0 0 0 0 0 0 0 0 2 3 4 4 4 4
0 0 0 0 0 0 0 0 0 0 0 0 0 0 0 0 0 0 0 0 0 0 0 0 1 1 0 0 0 0 0 0 0 0 0 0 0 0 1 1 1 2 2 3
0 0 0 0 0 0 0 0 0 0 0 0 0 0 0 0 0 0 0 0 0 0 0 0 0 0 0 0 0 0 0 0 0 0 0 0 0 0 0 0 0 0 1 2
0 0 0 0 0 0 0 0 0 0 0 0 0 0 0 0 0 0 0 0 0 0 0 0 0 0 0 0 0 0 0 0 0 0 0 0 0 0 0 0 0 0 0 1
0 0 0 0 0 0 0 0 0 0 0 0 0 0 0 0 0 0 0 0 0 0 0 0 0 0 0 0 0 0 0 0 0 0 0 0 0 0 0 0 0 0 0 0
0 0 0 0 0 0 0 0 0 0 0 0 0 0 0 0 0 0 0 0 0 0 0 0 0 0 0 0 0 0 0 0 0 0 0 0 0 0 0 0 0 0 0 0
Wind_Speed
2 2 1 1 2 2 2 3 2 1 2 3 3 2 2 3 4 4 4 4 4 4 4 4 3 3 3 2 2 2 2 2 2 1 1 1 2 2 2 2 3 3 3 3
4 1 1 1 2 3 4 3 2 2 2 3 2 2 1 2 3 3 4 5 5 5 5 4 3 3 3 2 2 2 2 2 2 1 1 1 1 1 2 2 2 3 3 3
2 1 0 2 3 4 4 4 3 2 3 4 3 3 2 2 2 2 3 3 4 5 5 5 5 4 3 2 2 2 2 3 2 2 1 1 1 1 1 1 2 3 3 3
1 0 2 3 2 4 3 2 4 4 5 2 4 3 2 2 2 2 2 3 4 4 5 5 5 4 3 3 2 2 3 3 3 3 2 2 1 0 1 1 1 1 2 2
1 0 2 3 3 4 2 1 3 5 5 3 3 4 2 2 1 1 1 2 2 3 4 4 4 4 3 3 2 2 2 2 2 2 2 2 1 0 0 0 1 1 1 2
1 0 2 3 2 3 3 4 4 5 6 5 3 5 2 1 2 1 0 1 2 2 3 3 4 4 3 3 2 2 2 2 2 2 2 2 1 1 1 0 0 1 1 1
3 2 1 2 2 4 5 5 4 5 5 2 1 4 2 1 1 1 1 1 2 2 2 3 3 4 4 3 3 3 3 2 2 2 1 1 1 1 1 1 0 1 0 0
4 2 1 2 4 3 4 6 4 3 2 1 3 4 1 2 0 1 1 1 2 2 2 2 3 3 3 3 3 3 3 3 2 1 1 1 1 1 1 1 1 1 1 1
2 1 2 1 2 4 3 3 4 5 4 4 3 2 1 2 2 1 1 2 1 2 2 2 2 2 2 2 3 3 3 2 2 2 1 1 1 1 1 1 1 1 0 0
3 3 1 2 3 0 3 2 4 5 4 4 4 4 2 2 2 1 1 1 1 1 1 1 1 1 1 2 2 3 3 2 2 2 1 1 1 1 1 1 1 1 0 0
4 4 2 4 3 3 3 3 3 4 4 5 4 0 2 1 1 1 1 1 1 1 1 1 1 1 1 1 1 2 3 2 2 2 2 2 1 1 1 1 1 1 1 1
3 5 4 3 1 2 3 4 5 5 4 5 5 1 3 1 1 1 1 0 1 1 1 1 1 1 1 1 1 1 2 2 2 2 2 2 1 2 2 1 1 2 2 2
3 5 5 5 6 4 3 3 4 6 5 6 6 1 3 1 1 1 0 0 1 1 1 1 1 1 1 1 0 1 1 2 2 2 2 2 2 2 2 2 2 2 2 2
4 5 6 5 2 1 4 4 5 7 6 6 7 5 2 2 2 1 0 0 1 1 1 1 1 1 1 0 0 0 1 1 2 2 2 2 2 2 2 2 2 2 2 3
4 5 5 5 4 4 5 6 6 8 8 8 6 6 5 4 3 2 1 1 1 1 0 1 1 0 0 0 0 0 0 1 2 2 2 3 2 2 2 2 3 2 3 3
3 4 5 6 5 5 7 8 8 9 9 9 9 8 4 3 2 2 1 1 1 1 1 1 1 1 1 1 0 1 1 1 2 3 3 2 3 3 3 3 3 3 3 3
3 5 5 5 4 6 8 7 7 7 6 7 8 5 3 3 3 3 2 1 2 2 2 2 1 1 1 1 1 1 1 1 1 2 2 3 4 4 4 3 4 4 4 4
5 5 4 4 6 8 0 1 3 5 5 6 6 4 3 4 4 3 2 2 2 2 2 2 2 2 2 1 1 1 1 2 2 2 3 3 4 4 4 4 5 5 4 4
6 6 4 4 6 6 3 2 3 6 5 4 5 4 3 2 3 2 1 2 2 2 2 2 2 2 2 1 1 1 1 2 2 3 3 3 4 4 4 5 5 5 5 5
4 6 6 5 7 6 0 2 2 5 6 1 2 3 2 3 4 2 1 2 2 2 1 1 1 2 1 1 1 2 2 2 3 3 4 4 4 4 5 5 5 5 5 5
5 5 7 8 8 5 1 2 4 6 2 1 1 2 3 4 4 4 2 2 2 2 1 1 1 1 1 1 2 2 2 3 3 3 3 3 3 4 4 4 4 4 5 5
6 5 6 6 8 4 3 4 4 2 3 0 1 2 3 3 2 2 2 2 2 2 1 1 1 1 1 1 2 3 3 3 3 3 3 3 3 3 3 3 3 4 4 5
6 5 3 5 3 2 2 3 2 2 1 1 2 2 2 2 2 2 2 2 2 1 1 1 1 1 1 1 2 3 2 2 2 2 3 3 3 3 3 3 3 3 3 4
4 4 6 6 6 4 3 3 3 3 3 3 2 2 2 2 2 2 2 2 2 1 1 1 2 2 1 1 2 3 2 2 2 3 3 3 2 2 2 2 2 3 3 3
4 4 6 8 6 4 5 4 4 3 3 2 2 2 2 2 2 2 2 2 2 1 1 1 2 2 2 1 2 2 2 2 3 3 3 3 2 2 2 2 2 3 3 4
5 7 7 6 4 5 4 3 3 4 3 3 2 2 2 2 2 1 1 1 1 1 1 1 2 2 2 1 1 2 2 3 3 3 3 2 2 2 2 2 2 2 3 4
Wind_Direction
154 178 163 184 232 278 242 219 196 147 155 188 194 213 188 186 199 210 205 200 198 193 178 165 160 163 166 159 147 131 130 125 123 115 97 68 61 41 45 36 35 31 27 31
171 166 299 315 211 217 223 226 194 143 149 209 204 231 213 197 212 223 228 218 208 201 189 174 169 174 176 169 162 160 163 156 157 118 63 45 49 34 36 27 27 29 28 33
179 62 170 209 206 217 224 246 242 199 159 196 227 207 179 173 197 212 231 231 216 205 202 184 180 183 183 187 183 189 179 161 155 156 142 129 119 136 103 51 35 21 23 33
203 183 220 228 240 245 232 253 242 217 222 199 240 242 162 186 186 203 216 211 208 202 201 188 182 178 184 192 193 197 181 165 160 166 172 179 178 47 13 15 50 42 39 51
162 162 243 251 269 253 261 217 218 225 232 231 225 254 176 163 229 252 208 205 196 194 198 188 182 180 182 181 185 190 179 166 163 181 172 201 199 164 101 56 46 32 58 56
200 208 294 296 278 237 180 181 180 208 230 235 245 254 234 168 257 279 159 171 167 163 182 186 178 174 174 168 168 164 162 152 165 189 187 199 197 197 175 158 28 352 49 67
198 182 211 279 230 177 209 228 219 209 213 228 188 247 244 76 357 293 270 186 150 144 153 167 179 181 178 168 160 160 158 160 169 191 208 220 225 227 224 229 224 283 345 5
225 202 194 268 271 244 215 245 263 270 261 222 190 241 89 88 66 242 201 145 142 140 141 160 170 177 183 179 173 170 166 171 176 189 200 236 244 253 253 258 264 272 311 345
245 198 146 242 272 265 219 230 285 278 259 248 211 207 187 192 191 163 136 119 133 134 135 152 161 166 178 187 183 185 184 186 181 188 193 196 220 236 252 252 249 248 297 38
278 244 183 178 194 91 302 238 227 243 254 251 227 228 216 196 209 179 180 160 125 122 132 132 154 165 173 186 192 186 186 190 189 193 194 184 203 205 259 260 236 241 207 153
258 250 189 187 225 229 182 198 244 250 267 273 264 212 43 332 319 252 211 174 155 145 149 132 128 136 143 136 172 189 188 190 193 198 199 195 193 184 202 234 250 250 218 201
244 265 237 216 184 285 244 244 248 259 245 253 270 288 80 45 332 303 305 77 124 143 139 129 113 113 123 130 167 192 200 195 197 206 199 194 193 192 208 223 235 242 230 223
228 250 239 202 183 184 213 227 243 261 262 249 252 227 94 57 339 346 330 77 128 152 140 118 108 110 119 120 189 214 224 217 207 211 216 215 214 214 225 236 230 226 229 229
253 253 262 271 311 252 230 231 234 242 249 251 251 264 269 300 326 343 339 203 147 171 151 98 104 117 105 98 81 254 251 235 213 211 221 230 238 237 239 238 231 228 229 233
254 252 252 268 276 261 255 253 238 239 254 265 266 269 284 305 313 316 282 212 201 189 226 244 190 177 161 134 86 313 293 250 219 214 224 231 237 236 235 241 237 236 242 245
243 247 248 246 243 252 259 254 242 243 250 253 259 268 287 302 298 294 265 226 243 256 260 263 254 242 234 238 257 263 287 292 239 223 229 240 248 240 234 239 241 238 243 245
224 233 245 245 237 253 247 247 237 231 237 250 256 270 276 266 276 282 269 241 262 266 261 261 259 249 247 252 252 256 267 267 262 254 244 243 244 246 241 239 238 237 238 241
236 232 246 256 241 242 166 91 229 227 238 244 255 272 281 291 293 285 272 279 273 264 264 265 264 260 263 257 264 269 259 257 263 269 267 261 252 249 251 247 241 240 243 241
234 229 234 245 250 253 232 221 234 236 245 242 245 257 277 303 270 222 269 298 287 272 266 266 267 265 256 245 251 251 247 263 268 270 273 271 262 254 249 249 247 243 241 242
199 221 234 236 251 252 294 114 228 238 234 186 245 257 254 259 268 313 352 308 306 311 289 288 279 266 247 245 249 245 250 262 275 280 280 280 271 262 257 256 256 252 250 249
194 206 224 237 248 258 36 121 196 230 305 111 243 258 241 255 308 342 336 324 326 321 310 305 267 252 247 234 239 251 262 274 286 287 288 290 282 273 269 268 263 257 252 253
221 215 217 226 236 242 112 166 214 314 39 75 248 250 250 269 304 323 328 327 328 329 325 301 274 269 246 232 246 259 272 290 294 291 289 288 290 291 281 274 269 260 253 251
226 235 243 237 258 17 170 221 299 326 280 268 262 252 240 250 271 300 307 318 323 317 306 295 283 273 247 237 255 268 282 293 288 286 288 291 295 293 285 273 267 266 261 256
223 232 240 247 251 263 245 249 265 276 279 273 260 238 228 245 263 286 301 313 323 321 316 296 277 270 260 255 267 284 294 282 275 281 288 293 291 290 287 286 278 275 273 271
246 215 238 251 262 263 247 255 262 262 261 255 249 239 240 248 258 281 292 309 318 312 301 277 271 272 276 268 283 296 291 280 277 282 285 288 290 292 290 289 291 279 281 290
223 231 241 256 255 257 260 258 263 254 254 253 252 255 251 244 252 271 292 309 316 313 296 284 289 291 287 272 283 290 288 282 280 281 285 286 283 281 281 283 291 299 281 296